Orbital Elements at Epoch 2459000.5 (2020-May-31.0) TDB
Reference: JPL 26 (heliocentric ecliptic J2000)
Element | Value | Uncertainty (1-sigma) | Units |
e | .1835140435515794 | 3.6934e-08 | |
a | 2.40183473438777 | 9.6484e-09 | au |
q | 1.961064330337636 | 8.8932e-08 | au |
i | 11.6687052006751 | 3.8489e-06 | deg |
node | 230.9588977572333 | 2.2646e-05 | deg |
peri | 60.96945000787255 | 2.5716e-05 | deg |
M | 219.2163034390599 | 1.2587e-05 | deg |
tp | 2459532.195484589783 (2021-Nov-13.69548459) | 4.8933e-05 | TDB |
period | 1359.606112981039 3.72 | 8.1925e-06 2.243e-08 | d yr |
n | .264782569424223 | 1.5955e-09 | deg/d |
Q | 2.842605138437903 | 1.1419e-08 | au |
|
| | Orbit Determination Parameters
Additional Information
|